Weather in Barcelona

Spain     41°23′13″N   2°10′12″E
temp.,
°C
wind,
m/s
gust,
m/s
humid.,
%
clouds,
%
prec.,
mm/h
press.,
hPa
HPBL,
m
17 may, tue
tue1723:00+21se116788 0.0 1020152
02:00+20ne006978 0.0 101948
05:00+20nnw11670 0.0 101814
08:00+20sse01630 0.0 101982
11:00+24sse22505 0.0 1019544
14:00+26sse44425 0.0 1018785
17:00+26s45460 0.0 1017518
20:00+23sse33583 0.0 1017381
18 may, wed
wed1823:00+21se11670 0.0 1019134
02:00+21wnw11665 0.0 101825
05:00+21n11635 0.0 101811
08:00+23n11566 0.0 101929
11:00+26sse224445 0.0 1020496
14:00+27sse3344100 0.0 1019606
17:00+27sse334566 0.0 1018659
20:00+25s225329 0.0 1018403
19 may, thu
thu1923:00+23s11623 0.0 1019115
02:00+22s11656 0.0 102044
05:00+21sse00675 0.0 102012
08:00+22ese116524 0.0 1021103
11:00+25se225395 0.0 1023515
14:00+26se334875 0.0 1023646
17:00+26sse33465 0.0 1022594
20:00+24se22476 0.0 1022367
20 may, fri
fri2023:00+22ese00525 0.0 1024100
02:00+22nne11513 0.0 102312
05:00+21ne12485 0.0 102315
08:00+21e11523 0.0 102584
11:00+25se21465 0.0 1024431
14:00+28sse334123 0.0 1024748
17:00+27sse344396 0.0 1022578
20:00+25sse2350100 0.0 1022307
21 may, sat
sat2123:00+23s115593 0.0 102265
02:00+23w114780 0.0 102113
05:00+22wnw224313 0.0 102025
08:00+23wnw124211 0.0 102060
11:00+28ssw36295 0.0 1019680
14:00+31ssw67275 0.0 1018922
17:00+30ssw68285 0.0 1016789
20:00+29sw4527100 0.0 1016437